A 243 GEBO Unifix Maxi zweiteilig 300

Artikelnummer: A243 Kategorie: Schlüsselworte: , ,

Beschreibung

Unifix Maxi Zum Abdichten von gas- und wasserführenden Leitungen geeignet. Erhältlich als ein-, zwei- oder dreiteilige Variante, oder auch mit Gewinde- oder Flanschabgang !

  • Zur Ermittlung der passenden Baulänge der Reparaturschelle addieren Sie das Maß der Beschädigung (A) mit dem Durchmesser des Rohres (B). Bei PE-Rohren fügen Sie 50% des Wertes zu der Summe hinzu.
  • Temperaturen:Wasser bis 90 °C, Gas –5 bis +50 °C
  • Die zulässigen Druckstufen variieren in Abhängigkeit von Rohrart, Rohraußendurchmesser, Beschädigung und der Verwendung ein- oder mehrteiliger Dichtbänder.Folgende Richtwerte sind daher zu Grunde zu legen.
  • 88 – 282 mm Wasser PN 16, 295 – 510 mm PN 10, 510 – 530 mm PN 6
ArtikelnummerSpannbereichLängeDichtungListenpreis CHFRabattgruppe
124308888 – 110 mm300 mmEPDM383.30KUPP
1243100100 – 120 mm300 mmEPDM388.70KUPP
1243108108 – 128 mm300 mmEPDM394.10KUPP
1243112112 – 134 mm300 mmEPDM420.90KUPP
1243120120 – 140 mm300 mmEPDM428.10KUPP
1243133133 – 156 mm300 mmEPDM430.60KUPP
1243138138 – 160 mm300 mmEPDM435.20KUPP
1243158158 – 180 mm300 mmEPDM487.30KUPP
1243165165 – 185 mm300 mmEPDM490.00KUPP
1243168168 – 190 mm300 mmEPDM492.80KUPP
1243176176 – 196 mm300 mmEPDM499.70KUPP
1243190190 – 210 mm300 mmEPDM506.70KUPP
1243195195 – 217 mm300 mmEPDM517.10KUPP
1243210210 – 230 mm300 mmEPDM517.80KUPP
1243216216 – 238 mm300 mmEPDM521.80KUPP
1243225225 – 246 mm300 mmEPDM536.00KUPP
1243230230 – 250 mm300 mmEPDM536.40KUPP
1243238238 – 260 mm300 mmEPDM536.80KUPP
1243250250 – 271 mm300 mmEPDM702.50KUPP
1243269269 – 289 mm300 mmEPDM702.50KUPP
1243273273 – 293 mm300 mmEPDM708.50KUPP
1243282282 – 302 mm300 mmEPDM711.50KUPP
1243295295 – 315 mm300 mmEPDM715.60KUPP
1243314314 – 335 mm300 mmEPDM737.40KUPP
1243322322 – 344 mm300 mmEPDM745.20KUPP
1243337337 – 358 mm300 mmEPDM757.90KUPP
1243347347 – 368 mm300 mmEPDM687.00KUPP
1243365365 – 385 mm300 mmEPDM771.20KUPP